Proserpine, Australia

1:45 AM AEST on April 24, 2018 (GMT +1000)
Whitsunday

Weather History for YBPN - December, 2013

Change the Weather History Date:

Thursday, December 5, 2013

  Actual Average Record
Temperature  
Mean Temperature 74 °F -  
Max Temperature 88 °F - - ()
Min Temperature 61 °F - - ()
Cooling Degree Days 10    
Growing Degree Days 24 (Base 50)    
Moisture  
Dew Point 65 °F    
Average Humidity 71    
Maximum Humidity 100    
Minimum Humidity 39    
Precipitation  
Precipitation 0.00 in - - ()
Sea Level Pressure  
Sea Level Pressure 29.76 in    
Wind  
Wind Speed 5 mph ()    
Max Wind Speed 16 mph    
Max Gust Speed -    
Visibility 6.9 miles    
Events      
T = Trace of Precipitation, MM = Missing Value Source: Averaged Metar Reports

Daily Weather History Graph

Daily Weather History Graph

Search for Another Location

Airport or City:

Astronomy

Dec. 05, 2013 Rise Set
Actual Time 5:17 AM AEST 6:35 PM AEST
Civil Twilight 4:52 AM AEST 7:00 PM AEST
Nautical Twilight 4:23 AM AEST 7:29 PM AEST
Astronomical Twilight 3:53 AM AEST 7:59 PM AEST
Moon 7:20 AM AEST (12/5) 8:47 PM AEST (12/5)
Length of Visible Light 14h 07m
Length of Day
13h 18m
Waxing Crescent, 6% of the Moon is Illuminated
Dec 5
Waxing Crescent
Dec 10
First Quarter
Dec 17
Full
Dec 25
Last Quarter
Jan 1
New

Hourly Weather History & Observations

Time (AEST) Temp. Heat Index Dew Point Humidity Pressure Visibility Wind Dir Wind Speed Gust Speed Precip Events Conditions
12:00 AM 66 °F - 64 °F 89% 29.81 in - SSW 2.3 mph - -  
12:00 AM 66.2 °F - 64.4 °F 94% 29.80 in 6.2 mi SSW 2.3 mph - N/A   Unknown
1:00 AM 64.4 °F - 62.6 °F 94% 29.77 in 6.2 mi Calm Calm - N/A   Unknown
2:00 AM 64.4 °F - 62.6 °F 94% 29.77 in 6.2 mi Calm Calm - N/A   Unknown
3:00 AM 64 °F - 62 °F 90% 29.77 in - Calm Calm - -  
3:00 AM 64.4 °F - 62.6 °F 94% 29.77 in 6.2 mi Calm Calm - N/A   Unknown
4:00 AM 62.6 °F - 62.6 °F 100% 29.77 in 6.2 mi Calm Calm - N/A   Unknown
5:00 AM 62.6 °F - 62.6 °F 100% 29.77 in 6.2 mi Calm Calm - N/A   Unknown
6:00 AM 64 °F - 63 °F 94% 29.79 in - Calm Calm - -  
6:00 AM 64.4 °F - 62.6 °F 94% 29.77 in 6.2 mi Calm Calm - N/A   Unknown
7:00 AM 71.6 °F - 66.2 °F 83% 29.80 in 6.2 mi Calm Calm - N/A   Unknown
8:00 AM 78.8 °F - 66.2 °F 65% 29.80 in 6.2 mi NW 4.6 mph - N/A   Unknown
9:00 AM 80 °F - 65 °F 52% 29.81 in 19 mi NNW 8.1 mph - -   Partly Cloudy
9:00 AM 80.6 °F 82.7 °F 66.2 °F 61% 29.80 in 6.2 mi NNW 8.1 mph - N/A   Unknown
10:00 AM 84.2 °F 85.6 °F 64.4 °F 51% 29.77 in 6.2 mi NW 8.1 mph - N/A   Unknown
11:00 AM 86.0 °F 87.3 °F 64.4 °F 48% 29.77 in 6.2 mi NW 11.5 mph - N/A   Unknown
12:00 PM 88 °F - 67 °F 39% 29.76 in - NNE 9.2 mph - -  
12:00 PM 87.8 °F 89.4 °F 64.4 °F 46% 29.74 in 6.2 mi North 11.5 mph - N/A   Unknown
1:00 PM 87.8 °F 90.4 °F 66.2 °F 49% 29.74 in 6.2 mi NNW 13.8 mph - N/A   Unknown
2:00 PM 87.8 °F 91.4 °F 68.0 °F 52% 29.71 in 6.2 mi NNW 16.1 mph - N/A   Unknown
3:00 PM 86 °F - 65 °F 40% 29.71 in 11 mi NNW 15.0 mph - -   Partly Cloudy
3:00 PM 86.0 °F 88.2 °F 66.2 °F 51% 29.68 in 6.2 mi NNW 15.0 mph - N/A   Mostly Cloudy
4:00 PM 84.2 °F 86.6 °F 66.2 °F 55% 29.68 in 6.2 mi NNW 16.1 mph - N/A   Unknown
5:00 PM 82.4 °F 83.9 °F 64.4 °F 54% 29.68 in 6.2 mi North 15.0 mph - N/A   Unknown
6:00 PM 80 °F - 66 °F 53% 29.72 in - NNW 12.7 mph - -  
6:00 PM 80.6 °F 82.7 °F 66.2 °F 61% 29.71 in 6.2 mi NNW 12.7 mph - N/A   Unknown
7:00 PM 77.0 °F - 66.2 °F 69% 29.71 in 6.2 mi NNW 10.4 mph - N/A   Unknown
8:00 PM 75.2 °F - 68.0 °F 78% 29.74 in 6.2 mi NNW 8.1 mph - N/A   Unknown
9:00 PM 75 °F - 68 °F 72% 29.77 in - NNW 6.9 mph - -  
9:00 PM 75.2 °F - 68.0 °F 78% 29.77 in 6.2 mi NNW 6.9 mph - N/A   Unknown
10:00 PM 73.4 °F - 68.0 °F 83% 29.77 in 6.2 mi North 5.8 mph - N/A   Unknown
11:00 PM 71.6 °F - 68.0 °F 88% 29.77 in 6.2 mi North 5.8 mph - N/A   Unknown